EW7114 Weather Reports


time (UTC)temp
F
wind
direction
speed
knots
gust
knots
rain 1hr
in
rain 24hr
in
rain mn
in
humidity
%
barometer
mb
20260509071051 58 326 5.2 8.7 0.00 0.00 0.00 45 1008.9
20260509070552 58 301 3.5 8.7 0.00 0.00 0.00 44 1008.9
20260509070054 57 319 6.1 8.7 0.00 0.00 0.00 47 1008.9
20260509065547 56 308 3.5 7.8 0.00 0.00 0.00 49 1008.7
20260509065047 55 323 2.6 5.2 0.00 0.00 0.00 51 1008.8
20260509064547 55 345 0.9 4.3 0.00 0.00 0.00 50 1008.6
20260509064051 56 315 0.0 3.5 0.00 0.00 0.00 49 1008.5
20260509063545 56 290 0.9 5.2 0.00 0.00 0.00 50 1008.5
20260509063044 55 290 2.6 5.2 0.00 0.00 0.00 51 1008.6
20260509062543 53 285 1.7 3.5 0.00 0.00 0.00 52 1008.6
20260509062043 53 319 0.9 4.3 0.00 0.00 0.00 52 1008.7
20260509061540 51 323 2.6 4.3 0.00 0.00 0.00 53 1008.8
20260509061038 48 255 0.0 1.7 0.00 0.00 0.00 52 1008.7
20260509060537 48 255 0.0 3.5 0.00 0.00 0.00 53 1008.8
20260509060046 48 255 0.9 3.5 0.00 0.00 0.00 53 1008.7
20260509055536 49 255 1.7 4.3 0.00 0.00 0.00 53 1008.9
20260509055036 49 350 2.6 4.3 0.00 0.00 0.00 53 1008.9
20260509054533 50 33 0.0 1.7 0.00 0.00 0.00 53 1008.4
20260509054031 50 33 0.9 2.6 0.00 0.00 0.00 53 1008.2
20260509053529 50 33 0.9 2.6 0.00 0.00 0.00 53 1008.3
20260509053032 50 330 0.0 0.0 0.00 0.00 0.00 52 1008.3
20260509052526 50 330 0.0 1.7 0.00 0.00 0.00 52 1008.3
20260509052025 49 330 0.9 2.6 0.00 0.00 0.00 52 1008.3
20260509051523 49 330 0.0 2.6 0.00 0.00 0.00 51 1008.2
20260509051022 49 283 0.0 1.7 0.00 0.00 0.00 49 1008.3
20260509050521 49 282 0.0 2.6 0.00 0.00 0.00 52 1008.3
20260509050019 49 282 0.0 3.5 0.00 0.00 0.00 52 1008.3
20260509045518 50 303 1.7 3.5 0.00 0.00 0.00 53 1008.2
20260509045016 50 172 0.9 2.6 0.00 0.00 0.00 53 1008.1
20260509044518 49 172 0.9 4.3 0.00 0.00 0.00 53 1008.2
20260509044014 50 173 1.7 4.3 0.00 0.00 0.00 53 1008.1
20260509043512 49 174 2.6 4.3 0.00 0.00 0.00 53 1008.1
20260509043017 50 179 1.7 2.6 0.00 0.00 0.00 52 1008.1
20260509042509 50 183 1.7 4.3 0.00 0.00 0.00 52 1008.0
20260509042008 52 182 2.6 4.3 0.00 0.00 0.00 50 1007.8
20260509041506 53 191 2.6 3.5 0.00 0.00 0.00 50 1007.8
20260509041005 53 124 0.0 2.6 0.00 0.00 0.00 51 1007.7
20260509040503 54 89 0.9 2.6 0.00 0.00 0.00 49 1007.7
20260509040002 54 89 0.9 1.7 0.00 0.00 0.00 49 1007.6
20260509035601 55 89 0.9 1.7 0.00 0.00 0.00 49 1007.5
20260509035100 55 89 0.9 1.7 0.00 0.00 0.00 49 1007.6
20260509034601 54 89 0.0 0.0 0.00 0.00 0.00 48 1007.5
20260509034056 54 89 0.0 0.0 0.00 0.00 0.00 49 1007.4
20260509033556 55 89 0.0 0.9 0.00 0.00 0.00 49 1007.3
20260509033053 55 89 0.0 1.7 0.00 0.00 0.00 47 1007.3
20260509032551 56 89 0.9 3.5 0.00 0.00 0.00 46 1007.2
20260509032051 58 83 0.9 3.5 0.00 0.00 0.00 46 1007.1
20260509031550 58 299 0.0 0.0 0.00 0.00 0.00 45 1007.1
20260509031050 59 299 0.0 0.0 0.00 0.00 0.00 44 1007.1
20260509030549 59 299 0.0 0.0 0.00 0.00 0.00 43 1007.1
20260509030048 59 299 0.0 0.0 0.00 0.00 0.00 42 1007.0
20260509025548 59 299 0.0 0.0 0.00 0.00 0.00 42 1007.0
20260509025046 59 299 0.0 1.7 0.00 0.00 0.00 42 1007.0
20260509024547 60 299 0.0 2.6 0.00 0.00 0.00 41 1006.9
20260509024042 60 299 0.9 2.6 0.00 0.00 0.00 41 1006.8
20260509023539 61 299 0.9 2.6 0.00 0.00 0.00 41 1006.8
20260509023041 63 299 0.0 1.7 0.00 0.00 0.00 39 1006.8
20260509022537 65 299 0.9 1.7 0.00 0.00 0.00 37 1006.8
20260509022036 66 299 0.0 2.6 0.00 0.00 0.00 35 1006.7
20260509021538 69 299 0.9 3.5 0.00 0.00 0.00 31 1006.6
20260509021033 71 297 1.7 3.5 0.00 0.00 0.00 27 1006.7
20260509020532 72 345 0.0 0.9 0.00 0.00 0.00 25 1006.6
20260509020033 73 345 0.0 1.7 0.00 0.00 0.00 25 1006.6
20260509015529 73 345 0.0 2.6 0.00 0.00 0.00 24 1006.5
20260509015028 73 345 0.0 2.6 0.00 0.00 0.00 24 1006.6
20260509014527 73 345 0.0 6.1 0.00 0.00 0.00 24 1006.6
20260509014026 74 1 2.6 6.1 0.00 0.00 0.00 24 1006.6
20260509013524 75 284 0.0 3.5 0.00 0.00 0.00 23 1006.6
20260509013023 75 284 1.7 5.2 0.00 0.00 0.00 25 1006.6
20260509012521 75 288 1.7 7.0 0.00 0.00 0.00 24 1006.7
20260509012020 75 341 1.7 9.6 0.00 0.00 0.00 24 1006.7
20260509011519 75 323 5.2 10.4 0.00 0.00 0.00 23 1006.7
20260509011017 75 311 1.7 7.8 0.00 0.00 0.00 23 1006.7
20260509010515 75 306 2.6 7.8 0.00 0.00 0.00 22 1006.8
20260509010019 76 277 3.5 10.4 0.00 0.00 0.00 23 1006.8
20260509005512 76 316 6.1 10.4 0.00 0.00 0.00 21 1006.8
20260509005013 77 261 0.0 2.6 0.00 0.00 0.00 22 1007.0
20260509004509 76 245 0.0 5.2 0.00 0.00 0.00 22 1007.0
20260509004008 76 216 1.7 7.8 0.00 0.00 0.00 23 1007.0
20260509003506 76 311 2.6 9.6 0.00 0.00 0.00 24 1007.1
20260509003014 76 268 3.5 9.6 0.00 0.00 0.00 24 1007.1
20260509002505 76 355 3.5 8.7 0.00 0.00 0.00 23 1007.2
20260509002003 76 304 0.9 8.7 0.00 0.00 0.00 22 1007.1
20260509001502 76 345 1.7 7.0 0.00 0.00 0.00 24 1007.1
20260509001059 75 303 1.7 8.7 0.00 0.00 0.00 23 1007.1
20260509000558 75 307 5.2 8.7 0.00 0.00 0.00 23 1007.1
20260509000058 75 289 2.6 9.6 0.00 0.00 0.00 23 1007.2
20260508235555 76 304 4.3 10.4 0.00 0.00 0.00 24 1007.3
20260508235054 76 5 4.3 9.6 0.00 0.00 0.00 24 1007.2
20260508234553 75 345 3.5 16.5 0.00 0.00 0.00 27 1007.3
20260508234052 75 345 8.7 18.2 0.00 0.00 0.00 25 1007.3
20260508233551 75 289 6.1 13.9 0.00 0.00 0.00 25 1007.3
20260508233049 76 305 8.7 13.9 0.00 0.00 0.00 24 1007.3
20260508232551 76 270 8.7 13.0 0.00 0.00 0.00 25 1007.0
20260508232046 76 284 4.3 10.4 0.00 0.00 0.00 23 1007.2
20260508231544 76 296 3.5 15.6 0.00 0.00 0.00 23 1007.2
20260508231043 76 350 5.2 15.6 0.00 0.00 0.00 25 1007.2
20260508230541 76 240 5.2 8.7 0.00 0.00 0.00 24 1007.2
20260508230040 76 328 3.5 14.8 0.00 0.00 0.00 24 1007.4
20260508225539 76 345 7.8 14.8 0.00 0.00 0.00 25 1007.4
20260508225038 76 355 3.5 13.0 0.00 0.00 0.00 26 1007.4
20260508224537 76 355 6.1 13.0 0.00 0.00 0.00 25 1007.4
20260508224035 76 28 7.0 14.8 0.00 0.00 0.00 25 1007.5
20260508223533 75 355 6.1 14.8 0.00 0.00 0.00 26 1007.6
20260508223040 75 324 5.2 12.2 0.00 0.00 0.00 27 1007.7
20260508222529 76 26 6.1 13.0 0.00 0.00 0.00 26 1007.8
20260508222028 75 350 7.8 13.0 0.00 0.00 0.00 25 1007.8
20260508221527 75 3 3.5 12.2 0.00 0.00 0.00 25 1007.9
20260508221029 75 53 3.5 10.4 0.00 0.00 0.00 26 1008.0
20260508220526 75 331 6.1 10.4 0.00 0.00 0.00 25 1008.0
20260508220024 75 345 2.6 11.3 0.00 0.00 0.00 28 1008.2
20260508215521 75 345 7.8 11.3 0.00 0.00 0.00 27 1008.2
20260508215020 75 359 5.2 13.0 0.00 0.00 0.00 28 1008.2
20260508214519 75 39 7.8 13.9 0.00 0.00 0.00 27 1008.2
20260508214017 75 39 8.7 13.9 0.00 0.00 0.00 28 1008.2
20260508213515 75 22 5.2 13.9 0.00 0.00 0.00 26 1008.2
20260508213016 75 45 7.0 19.1 0.00 0.00 0.00 26 1008.3
20260508212513 74 286 2.6 9.6 0.00 0.00 0.00 27 1008.3
20260508212016 75 267 6.1 10.4 0.00 0.00 0.00 27 1008.5
20260508211509 75 302 6.1 9.6 0.00 0.00 0.00 26 1008.4
20260508211008 74 269 1.7 11.3 0.00 0.00 0.00 26 1008.5
20260508210506 74 35 2.6 13.0 0.00 0.00 0.00 27 1008.6
20260508210005 74 355 8.7 13.0 0.00 0.00 0.00 27 1008.6
20260508205505 74 294 7.8 13.0 0.00 0.00 0.00 26 1008.7
20260508205003 74 276 7.8 12.2 0.00 0.00 0.00 27 1008.8
20260508204602 74 327 4.3 12.2 0.00 0.00 0.00 25 1008.8
20260508204503 74 314 3.5 13.0 0.00 0.00 0.00 25 1008.8
20260508204100 74 272 8.7 13.0 0.00 0.00 0.00 25 1008.8
20260508203557 74 328 7.8 13.0 0.00 0.00 0.00 27 1008.8
20260508203101 74 340 8.7 14.8 0.00 0.00 0.00 26 1009.0
20260508202554 74 276 7.0 14.8 0.00 0.00 0.00 26 1009.0
20260508202052 73 244 3.5 12.2 0.00 0.00 0.00 27 1009.0
20260508201553 74 276 7.8 11.3 0.00 0.00 0.00 28 1009.0
20260508201049 74 350 7.0 14.8 0.00 0.00 0.00 28 1009.1
20260508200548 74 14 7.0 17.4 0.00 0.00 0.00 28 1009.1
20260508200047 74 7 7.0 16.5 0.00 0.00 0.00 29 1009.1
20260508195545 73 36 10.4 16.5 0.00 0.00 0.00 28 1009.1
20260508195044 73 359 5.2 13.9 0.00 0.00 0.00 28 1009.2
20260508194542 73 62 7.8 13.9 0.00 0.00 0.00 30 1009.2
20260508194041 73 334 5.2 14.8 0.00 0.00 0.00 28 1009.3
20260508193540 73 12 4.3 15.6 0.00 0.00 0.00 29 1009.3
20260508193047 73 59 4.3 15.6 0.00 0.00 0.00 30 1009.3
20260508192537 73 3 7.8 13.9 0.00 0.00 0.00 29 1009.4
20260508192037 73 45 3.5 12.2 0.00 0.00 0.00 30 1009.4
20260508191535 72 30 6.1 15.6 0.00 0.00 0.00 29 1009.4
20260508191032 73 46 10.4 15.6 0.00 0.00 0.00 29 1009.6
20260508190531 73 331 9.6 14.8 0.00 0.00 0.00 29 1009.7
20260508190031 73 8 7.8 14.8 0.00 0.00 0.00 29 1009.7
20260508185529 73 35 6.1 14.8 0.00 0.00 0.00 29 1009.8
20260508185026 73 34 7.8 15.6 0.00 0.00 0.00 30 1009.8
20260508184529 73 45 9.6 16.5 0.00 0.00 0.00 29 1010.0
20260508184023 72 12 8.7 17.4 0.00 0.00 0.00 29 1010.0
20260508183527 72 350 11.3 17.4 0.00 0.00 0.00 29 1010.0
20260508183020 72 37 9.6 18.2 0.00 0.00 0.00 28 1010.1
20260508182519 72 55 10.4 18.2 0.00 0.00 0.00 29 1010.1
20260508182017 72 32 11.3 16.5 0.00 0.00 0.00 29 1010.1
20260508181517 71 21 9.6 18.2 0.00 0.00 0.00 30 1010.2
20260508181015 71 23 10.4 18.2 0.00 0.00 0.00 29 1010.3
20260508180514 71 32 10.4 17.4 0.00 0.00 0.00 29 1010.2
20260508180018 71 12 9.6 17.4 0.00 0.00 0.00 29 1010.4
20260508175511 72 326 10.4 15.6 0.00 0.00 0.00 31 1010.4
20260508175010 71 13 9.6 16.5 0.00 0.00 0.00 30 1010.5
20260508174512 72 10 8.7 16.5 0.00 0.00 0.00 30 1010.5
20260508174013 71 39 7.8 17.4 0.00 0.00 0.00 32 1010.5
20260508173505 71 14 9.6 20.0 0.00 0.00 0.00 32 1010.5
20260508173008 70 24 7.8 17.4 0.00 0.00 0.00 32 1010.5
20260508172503 70 345 9.6 17.4 0.00 0.00 0.00 32 1010.6
20260508172002 70 332 7.8 13.9 0.00 0.00 0.00 33 1010.6
20260508171600 70 1 8.7 15.6 0.00 0.00 0.00 32 1010.6
20260508171058 70 345 7.0 16.5 0.00 0.00 0.00 33 1010.7
20260508170557 70 359 7.8 16.5 0.00 0.00 0.00 32 1010.7
20260508170055 70 44 7.8 13.9 0.00 0.00 0.00 34 1010.6
20260508165557 70 355 9.6 14.8 0.00 0.00 0.00 34 1010.7
20260508165052 70 350 6.1 14.8 0.00 0.00 0.00 35 1010.6
20260508164552 70 5 9.6 14.8 0.00 0.00 0.00 34 1010.6
20260508164051 69 42 7.0 14.8 0.00 0.00 0.00 36 1010.5
20260508163553 69 26 9.6 14.8 0.00 0.00 0.00 35 1010.6
20260508163049 69 1 7.8 13.0 0.00 0.00 0.00 35 1010.6
20260508162545 69 345 9.6 13.9 0.00 0.00 0.00 35 1010.6
20260508162044 69 33 7.8 13.9 0.00 0.00 0.00 37 1010.6
20260508161543 68 7 6.1 10.4 0.00 0.00 0.00 39 1010.7
20260508161043 67 27 5.2 9.6 0.00 0.00 0.00 41 1010.7
20260508160543 65 24 5.2 8.7 0.00 0.00 0.00 41 1010.8
20260508160058 65 28 2.6 6.1 0.00 0.00 0.00 43 1010.8
20260508155539 63 355 1.7 5.2 0.00 0.00 0.00 44 1010.9
20260508155036 62 355 1.7 3.5 0.00 0.00 0.00 46 1011.0
20260508154534 61 53 0.0 1.7 0.00 0.00 0.00 48 1011.0
20260508154032 60 105 0.0 2.6 0.00 0.00 0.00 49 1011.1
20260508153531 59 105 0.0 2.6 0.00 0.00 0.00 50 1011.1
20260508153030 59 105 0.0 0.0 0.00 0.00 0.00 50 1011.2
20260508152527 59 105 0.0 0.0 0.00 0.00 0.00 49 1011.3
20260508152026 59 105 0.0 1.7 0.00 0.00 0.00 49 1011.3
20260508151524 58 105 0.0 1.7 0.00 0.00 0.00 51 1011.4
20260508151023 57 105 0.0 1.7 0.00 0.00 0.00 51 1011.4
20260508150522 56 105 0.0 2.6 0.00 0.00 0.00 50 1011.5
20260508150022 55 105 0.0 2.6 0.00 0.00 0.00 50 1011.5
20260508145519 55 105 0.9 2.6 0.00 0.00 0.00 49 1011.5
20260508145020 54 105 0.0 2.6 0.00 0.00 0.00 45 1011.7
20260508144516 53 105 0.0 2.6 0.00 0.00 0.00 40 1011.6
20260508144015 52 112 0.9 2.6 0.00 0.00 0.00 23 1011.5
20260508143513 51 218 0.0 0.9 0.00 0.00 0.00 1 1011.6
20260508143010 50 218 0.0 0.9 0.00 0.00 0.00 1 1011.7
20260508142509 49 218 0.0 1.7 0.00 0.00 0.00 1 1011.6
20260508142008 47 218 0.0 1.7 0.00 0.00 0.00 1 1011.6
20260508141506 46 218 0.0 0.0 0.00 0.00 0.00 1 1011.6
20260508141004 45 218 0.0 0.0 0.00 0.00 0.00 1 1011.5
20260508140503 45 218 0.0 0.0 0.00 0.00 0.00 1 1011.6
20260508140002 44 218 0.0 0.9 0.00 0.00 0.00 1 1011.7
20260508135600 43 218 0.0 1.7 0.00 0.00 0.00 1 1011.6
20260508135058 43 218 0.9 2.6 0.00 0.00 0.00 1 1011.5
20260508134559 42 218 0.9 2.6 0.00 0.00 0.00 1 1011.5
20260508134056 41 218 0.0 0.0 0.00 0.00 0.00 1 1011.3
20260508133558 40 218 0.0 0.0 0.00 0.00 0.00 1 1011.4
20260508133058 40 218 0.0 0.0 0.00 0.00 0.00 1 1011.4
20260508132551 39 218 0.0 0.0 0.00 0.00 0.00 1 1011.4
20260508132050 37 218 0.0 0.0 0.00 0.00 0.00 1 1011.4
20260508131549 36 218 0.0 0.9 0.00 0.00 0.00 1 1011.4
20260508131047 36 218 0.0 1.7 0.00 0.00 0.00 1 1011.3
20260508130546 35 218 0.9 1.7 0.00 0.00 0.00 1 1011.2
20260508130053 35 218 0.0 1.7 0.00 0.00 0.00 1 1011.3
20260508125543 35 218 0.0 1.7 0.00 0.00 0.00 1 1011.1
20260508125042 35 218 0.0 1.7 0.00 0.00 0.00 1 1011.1
20260508124540 35 218 0.0 1.7 0.00 0.00 0.00 1 1011.1
20260508124039 35 218 0.0 0.0 0.00 0.00 0.00 1 1010.9
20260508123538 35 218 0.0 1.7 0.00 0.00 0.00 1 1010.9
20260508123036 34 218 0.0 1.7 0.00 0.00 0.00 1 1010.8
20260508122534 34 218 0.0 0.0 0.00 0.00 0.00 1 1010.7
20260508122033 35 206 0.0 1.7 0.00 0.00 0.00 1 1010.7
20260508121552 35 206 0.9 1.7 0.00 0.00 0.00 1 1010.7
20260508121029 35 206 0.0 0.9 0.00 0.00 0.00 1 1010.7
20260508120528 35 206 0.0 0.0 0.00 0.00 0.00 1 1010.6
20260508120031 35 206 0.0 0.0 0.00 0.00 0.00 1 1010.6
20260508115527 35 206 0.0 0.0 0.00 0.00 0.00 1 1010.6
20260508115024 35 206 0.0 0.0 0.00 0.00 0.00 1 1010.6
20260508114523 35 206 0.0 1.7 0.00 0.00 0.00 1 1010.5
20260508114022 36 206 0.0 1.7 0.00 0.00 0.00 1 1010.5
20260508113521 36 206 0.0 0.0 0.00 0.00 0.00 1 1010.6
20260508113019 36 205 0.0 1.7 0.00 0.00 0.00 1 1010.4
20260508112516 37 205 0.0 1.7 0.00 0.00 0.00 1 1010.5
20260508112015 38 205 0.0 1.7 0.00 0.00 0.00 1 1010.5
20260508111514 39 205 0.9 2.6 0.00 0.00 0.00 1 1010.4
20260508111013 39 205 0.9 3.5 0.00 0.00 0.00 1 1010.5
20260508110512 39 205 1.7 4.3 0.00 0.00 0.00 1 1010.5
20260508110010 38 205 1.7 4.3 0.00 0.00 0.00 1 1010.4
20260508105513 38 225 1.7 6.1 0.00 0.00 0.00 1 1010.5
20260508105008 37 253 1.7 6.1 0.00 0.00 0.00 1 1010.4
20260508104506 37 253 0.9 3.5 0.00 0.00 0.00 1 1010.4
20260508104004 37 253 1.7 3.5 0.00 0.00 0.00 1 1010.3
20260508103503 37 253 0.9 3.5 0.00 0.00 0.00 1 1010.4
20260508103005 37 253 1.7 3.5 0.00 0.00 0.00 1 1010.4
20260508102600 37 253 0.9 3.5 0.00 0.00 0.00 1 1010.4
20260508102059 37 253 1.7 3.5 0.00 0.00 0.00 1 1010.3
20260508101657 36 253 0.9 2.6 0.00 0.00 0.00 1 1010.2
20260508101056 36 253 0.0 1.7 0.00 0.00 0.00 1 1010.1
20260508100554 36 253 0.0 1.7 0.00 0.00 0.00 1 1010.0
20260508100052 36 253 0.9 1.7 0.00 0.00 0.00 1 1010.0
20260508095551 37 253 0.0 2.6 0.00 0.00 0.00 1 1010.0
20260508095053 38 253 1.7 2.6 0.00 0.00 0.00 1 1009.9
20260508094603 39 253 1.7 2.6 0.00 0.00 0.00 1 1009.9
20260508094047 40 253 0.0 1.7 0.00 0.00 0.00 1 1009.8
20260508093547 40 253 0.0 2.6 0.00 0.00 0.00 1 1009.9
20260508093045 40 253 0.9 2.6 0.00 0.00 0.00 1 1009.8
20260508092542 41 253 0.0 0.0 0.00 0.00 0.00 1 1009.8
20260508092041 41 253 0.0 0.0 0.00 0.00 0.00 1 1009.8
20260508091541 41 253 0.0 1.7 0.00 0.00 0.00 1 1009.8
20260508091039 40 253 0.0 1.7 0.00 0.00 0.00 1 1009.8
20260508090539 40 253 0.9 2.6 0.00 0.00 0.00 1 1009.8
20260508090037 41 253 1.7 2.6 0.00 0.00 0.00 1 1009.8
20260508085535 41 253 0.9 2.6 0.00 0.00 0.00 1 1009.8
20260508085033 41 253 0.0 0.0 0.00 0.00 0.00 1 1009.8
20260508084533 41 253 0.0 0.0 0.00 0.00 0.00 1 1009.9
20260508084035 41 253 0.0 0.0 0.00 0.00 0.00 1 1009.9
20260508083529 40 253 0.0 0.0 0.00 0.00 0.00 1 1009.9
20260508083046 40 253 0.0 0.0 0.00 0.00 0.00 1 1009.9
20260508082515 41 253 0.0 0.0 0.00 0.00 0.00 1 1010.0
20260508082020 41 253 0.0 0.0 0.00 0.00 0.00 1 1010.0
20260508081513 41 253 0.0 0.0 0.00 0.00 0.00 1 1010.0
20260508081010 41 253 0.0 0.0 0.00 0.00 0.00 1 1009.9
20260508080510 40 253 0.0 0.0 0.00 0.00 0.00 1 1009.9
20260508075506 40 253 0.0 0.0 0.00 0.00 0.00 3 1010.0
20260508075004 41 253 0.0 1.7 0.00 0.00 0.00 2 1009.9
20260508074502 41 253 0.0 1.7 0.00 0.00 0.00 1 1009.9
20260508074002 42 253 0.0 1.7 0.00 0.00 0.00 1 1009.9
20260508073601 42 253 0.0 1.7 0.00 0.00 0.00 1 1009.9
20260508073101 42 253 0.0 0.0 0.00 0.00 0.00 1 1009.9
20260508072558 42 253 0.0 1.7 0.00 0.00 0.00 1 1009.8
20260508072056 42 253 0.0 1.7 0.00 0.00 0.00 1 1009.7
20260508071557 42 253 0.9 1.7 0.00 0.00 0.00 1 1009.8